Back to catalog

STARLINK-3117

AliveCommunicationsVLEO
NORAD 49435·PAYLOAD·🇺🇸 United States

Launched Nov 13, 2021 from Cape Canaveral Space Force Station

Loading…

Next Passes (next 24 hours)

TLE

FreshSource: CelesTrak SupGP

Epoch: Sep 14, 2026, 14:23 UTC

1 49435C 21104AD  26257.59979167  .00662470  00000+0  23534-1 0  2577
2 49435  53.1611  79.3455 0001331  94.1880   2.1643 15.28151888    19

Track STARLINK-3117 in real time with AllMySat

Download on the App Store